logo
Search for airport 
image banner adimage banner adimage banner ad
image banner ad

ENGM - Gardermoen

Located in Oslo, Norway

ICAO - ENGM, IATA - OSL

Data provided by Airmate  

General information

Coordinates: N60°12'10" E11°5'2"
Elevation is 681 feet MSL.
Magnetic variation is 3.9° East
View others Airports in Akershus

Operational data

Special qualification required
Current time UTC:
Current local time:
Weather
METAR: ENGM 220850Z 10007KT 050V150 CAVOK 17/M04 Q1022 NOSIG
TAF: TAF ENGM 220500Z 2206/2306 01005KT CAVOK BECMG 2210/2212 14010KT BECMG 2300/2302 01005KT
View NOTAMs / SUP AIP / TFR affecting this airport [VIEW]
Communications frequencies: [VIEW]

Runways:

RWY identifierQFULength (ft)Width (ft)SurfaceLDA (ft)
01R16°9678148ASP
19L196°9678148ASP
01L16°11811148ASP
19R196°11811148ASP

Airport contact information

Address: Oslo Norway

Other aviation service providers

Flight schools

Cae Centre Oslo As Ato

Cae Centre Oslo As Ato

Privatfly.No Fto

Privatfly.No Fto

Aviation club (not for profit)

Gardermoen Flyklubb

Gardermoen Flyklubb

Satellite view of ENGM